Terminal Aerodrome Forecast
Issued by NWS Wilmington, OH

Current Version | Previous Version | Graphics & Text | Print | Product List | Glossary On
Versions: 1 2 3 4 5 6 7 8 9 10 11 12 13 14 15 16
877
FTUS41 KILN 091745
TAFCMH
TAF
KCMH 091745Z 0918/1018 27012G20KT 6SM HZ VCSH BKN015 OVC025
     FM092000 27012G20KT 1SM -SHSN BKN015 OVC025
     FM100000 28012G20KT P6SM VCSH SCT015 OVC025
     FM101000 28012G20KT 4SM -SHSN BKN015 OVC025=

USA.gov is the U.S. government's official web portal to all federal, state and local government web resources and services.